Zurück zum Katalog

SL-12 DEB

LostHEO
NORAD 35083·DEBRIS·🇷🇺 Russia

Gestartet Apr 4, 1991 von Baikonur Cosmodrome

Loading…

Nächste Überflüge (nächste 24 Stunden)

TLE

VeraltetSource: Space-Track

Epoche: Oct 30, 2009, 09:41 UTC

1 35083U 91025AD  09303.40353552  .00000025  00000-0  10000-3 0  9999
2 35083  74.0003  93.0156 3808138  16.8025 341.8095  5.27249423  7939

Verfolge SL-12 DEB in Echtzeit mit AllMySat

Download on the App Store